Location: Demre
(36.2444°N, 29.9850°E)
Time: 05:08:34
(UTC+00:00)

Cosmos 1269 Rocket - Pass Details

Date: 11 March 2026
Orbit: 769 x 774 km, 74.1° (Epoch: 21 April)

Event Time Altitude Azimuth Distance (km) Brightness Sun altitude
Rises 17:04:14 0° 191° (S) 3,229 7.3 -13.0°
Reaches altitude 10° 17:06:36 10° 189° (S) 2,305 6.5 -13.5°
Maximum altitude 17:11:49 74° 106° (ESE) 803 3.9 -14.5°
Drops below altitude 10° 17:17:04 10° 22° (NNE) 2,317 6.3 -15.6°
Sets 17:19:27 0° 20° (NNE) 3,247 7.1 -16.0°
